Location: Newark
(44.1667°N, 8.2500°E)
Time: 21:11:56
(UTC+00:00)

S-56A Canister/Altair - All Passes

Search period start: 10 December 2019 00:00
Search period end: 20 December 2019 00:00
Orbit: 633 x 2499 km, 38.9° (Epoch: 10 December)

Date Brightness Start Highest point End Pass type
(mag) Time Alt. Az. Time Alt. Az. Time Alt. Az.
10 Dec - 07:53:54 10° SSW 08:05:08 32° SE 08:17:25 10° E daylight
10 Dec - 09:56:06 10° SW 10:10:12 59° SSE 10:24:14 10° E daylight
10 Dec - 12:01:28 10° W 12:16:35 72° S 12:29:29 10° E daylight
10 Dec - 14:08:15 10° W 14:22:31 57° SSW 14:33:21 10° SE daylight
10 Dec - 16:16:19 10° W 16:26:27 27° SW 16:34:19 10° S visible
11 Dec - 07:21:32 10° S 07:31:55 28° SE 07:43:34 10° E daylight
11 Dec - 09:23:03 10° SW 09:36:39 56° SSE 09:50:52 10° E daylight
11 Dec - 11:27:59 10° WSW 11:42:58 72° S 11:56:26 10° E daylight
11 Dec - 13:34:31 10° W 13:49:10 61° SSW 14:00:40 10° SE daylight
11 Dec - 15:42:14 10° W 15:53:31 31° SW 16:02:16 10° SSE daylight
12 Dec - 06:49:22 10° S 06:58:47 25° SE 07:09:32 10° E daylight
12 Dec - 08:50:06 10° SW 09:03:09 53° SSE 09:17:24 10° E daylight
12 Dec - 10:54:35 10° WSW 11:09:20 71° S 11:23:18 10° E daylight
12 Dec - 13:00:51 10° W 13:15:44 64° SSW 13:27:54 10° ESE daylight
12 Dec - 15:08:14 10° W 15:20:30 36° SW 15:30:04 10° SSE daylight
13 Dec - 06:17:25 10° S 06:25:45 21° SE 06:35:18 10° E visible
13 Dec - 08:17:17 10° SW 08:29:43 49° SSE 08:43:51 10° E daylight
13 Dec - 10:21:17 10° WSW 10:35:42 70° S 10:50:04 10° E daylight
13 Dec - 12:27:15 10° W 12:42:13 66° SSW 12:55:01 10° ESE daylight
13 Dec - 14:34:20 10° W 14:47:23 40° SW 14:57:43 10° SSE daylight
13 Dec - 16:45:51 10° WSW 16:50:13 12° WSW 16:54:11 10° SW visible
14 Dec - 05:45:47 10° SSE 05:52:47 18° SE 06:00:46 10° E visible
14 Dec - 07:44:34 10° SW 07:56:21 46° SSE 08:10:13 10° E daylight
14 Dec - 09:48:06 10° WSW 10:02:04 69° S 10:16:44 10° E daylight
14 Dec - 11:53:44 10° W 12:08:39 68° SSW 12:22:02 10° ESE daylight
14 Dec - 14:00:31 10° W 14:14:10 44° SW 14:25:14 10° SSE daylight
14 Dec - 16:10:28 10° W 16:17:25 16° SW 16:23:30 10° SSW visible
15 Dec - 05:14:39 10° SSE 05:19:55 14° SE 05:25:47 10° E visible
15 Dec - 07:12:00 10° SSW 07:23:03 42° SE 07:36:29 10° E daylight
15 Dec - 09:15:01 10° WSW 09:28:27 67° SSE 09:43:18 10° E daylight
15 Dec - 11:20:18 10° W 11:35:02 70° S 11:48:57 10° ESE daylight
15 Dec - 13:26:48 10° W 13:40:52 48° SSW 13:52:38 10° SE daylight
15 Dec - 15:35:46 10° W 15:44:32 20° SW 15:52:04 10° SSW daylight
16 Dec - 04:45:02 10° SE 04:47:07 11° ESE 04:49:18 10° ESE visible
16 Dec - 06:39:33 10° SSW 06:49:50 37° SE 07:02:39 10° E daylight
16 Dec - 08:42:02 10° WSW 08:54:53 65° SSE 09:09:48 10° E daylight
16 Dec - 10:46:57 10° W 11:01:23 71° S 11:15:46 10° ESE daylight
16 Dec - 12:53:09 10° W 13:07:28 52° SSW 13:19:55 10° SE daylight
16 Dec - 15:01:24 10° W 15:11:34 23° SW 15:20:17 10° S daylight
17 Dec - 06:07:15 10° SSW 06:16:45 33° SE 06:28:43 10° E visible
17 Dec - 08:09:09 10° WSW 08:21:23 62° SSE 08:36:12 10° E daylight
17 Dec - 10:13:42 10° W 10:27:45 72° S 10:42:28 10° ESE daylight
17 Dec - 12:19:36 10° W 12:34:01 55° SSW 12:47:04 10° SE daylight
17 Dec - 14:27:15 10° W 14:38:30 27° SW 14:48:14 10° S daylight
18 Dec - 05:35:06 10° S 05:43:44 29° SE 05:54:41 10° E visible
18 Dec - 07:36:23 10° SW 07:47:57 58° SSE 08:02:32 10° E daylight
18 Dec - 09:40:33 10° W 09:54:06 72° S 10:09:05 10° E daylight
18 Dec - 11:46:08 10° W 12:00:30 59° SSW 12:14:08 10° SE daylight
18 Dec - 13:53:17 10° W 14:05:22 31° SW 14:16:00 10° SSE daylight
19 Dec - 05:03:06 10° S 05:10:49 25° SE 05:20:32 10° E visible
19 Dec - 07:03:43 10° SW 07:14:36 55° SSE 07:28:48 10° E daylight
19 Dec - 09:07:30 10° WSW 09:20:29 71° S 09:35:36 10° E daylight
19 Dec - 11:12:47 10° W 11:26:56 61° SSW 11:41:03 10° SE daylight
19 Dec - 13:19:28 10° W 13:32:09 35° SW 13:43:34 10° SSE daylight
